CAPE
0 0 0 0 0 0 0 0 0 0 0 0 0 0 0 0 0 0 0 0 0 0 0 0 0 0 0 0 0 0 87 2257 1922 1064 384 110 51 167 146 140 394 38 60 168
0 0 0 0 0 0 0 0 0 0 0 0 0 0 0 0 0 0 0 0 0 0 0 0 0 0 0 0 0 0 0 29 1200 1630 1511 1157 874 418 474 403 971 968 596 398
0 0 0 0 0 0 0 0 0 0 0 0 0 0 0 0 0 0 0 0 0 0 0 0 0 0 0 0 0 0 0 0 0 670 1204 1346 1153 1154 859 1084 1451 1351 1010 812
0 0 0 0 0 0 0 0 0 0 0 0 0 0 0 0 0 0 0 0 0 0 0 0 0 0 0 0 0 0 0 0 0 2 283 1504 1295 1352 1613 1626 1529 1692 1396 1240
0 0 0 0 0 0 0 0 0 0 0 0 0 0 0 0 0 0 0 0 0 0 0 0 0 0 0 0 0 0 0 0 0 0 33 205 1357 1593 1817 1539 2259 2707 2073 2058
0 0 0 0 0 0 0 0 0 0 0 0 0 0 0 0 0 0 0 0 0 0 0 0 0 0 0 0 0 0 0 0 0 0 0 47 320 890 951 1386 1543 1514 1644 1881
0 0 0 0 0 0 0 0 0 0 0 0 0 0 0 0 0 0 0 0 0 0 0 0 0 0 0 0 0 0 0 0 0 0 0 0 112 345 889 1324 1251 1512 1418 1528
0 0 0 0 0 0 0 0 0 0 0 0 0 0 0 0 0 0 0 0 0 0 0 0 0 0 0 0 0 0 0 0 0 0 0 0 35 144 493 1115 929 805 942 1677
1 0 0 0 0 0 0 0 0 0 0 0 0 0 0 0 0 0 0 0 0 0 0 0 0 0 0 0 0 0 0 0 0 0 0 0 0 199 694 1789 1901 1347 1416 1348
0 0 0 0 0 0 0 0 0 5 2 0 0 0 0 0 0 0 0 0 0 0 0 0 0 0 0 0 0 0 0 0 0 0 0 0 0 68 404 1315 1525 1591 1712 1294
1 0 0 0 0 0 0 0 0 1 7 6 1 0 0 0 0 0 0 0 0 0 0 0 0 0 0 0 0 0 0 0 0 0 0 0 0 3 239 469 764 958 1289 1359
17 25 4 0 0 0 0 0 2 30 15 15 21 0 0 0 0 0 0 0 0 0 1 2 0 0 27 2 0 0 0 0 0 0 0 0 0 2 134 332 573 882 1144 1278
50 31 10 0 0 0 0 0 0 12 8 20 35 1 0 0 0 0 0 0 0 0 0 1 0 0 46 12 0 0 0 0 0 0 0 0 0 23 247 383 713 978 1168 1386
24 36 21 11 0 0 0 0 6 28 34 1 22 0 0 0 0 0 0 0 0 0 0 0 0 0 69 42 3 0 0 0 0 39 65 0 26 235 424 512 765 1038 1309 1513
49 34 22 6 0 0 1 1 0 9 2 16 0 0 0 0 0 0 0 3 3 1 0 0 0 3 8 2 10 7 0 0 1 4 142 225 338 539 455 624 942 1204 1514 1658
25 26 19 5 0 0 0 0 0 0 0 3 0 1 0 1 1 4 4 0 1 3 0 0 0 0 0 0 7 12 0 18 19 47 57 553 794 593 698 1007 1188 1339 1665 1932
55 51 17 0 0 3 0 0 0 0 3 0 7 8 2 0 1 2 3 11 12 5 0 2 8 0 0 0 0 73 38 15 25 75 92 630 1184 807 896 965 1086 1251 1617 2114
19 7 26 14 7 12 0 0 0 0 0 0 2 3 14 12 9 9 9 24 49 27 18 31 18 15 4 1 5 10 36 36 46 79 88 1195 1078 922 944 1094 1115 1254 1957 2176
6 24 35 31 33 7 0 0 16 24 0 0 4 4 7 8 19 2 21 24 9 36 55 32 18 20 18 5 15 8 2 2 2 204 67 1174 930 794 920 1194 1268 1472 1824 1367
5 10 43 32 21 4 0 4 1 15 20 2 6 7 16 32 29 5 20 18 25 53 35 28 17 28 29 7 30 7 7 5 155 142 143 1095 1044 1087 1294 1129 1132 1132 1182 573
2 5 3 7 36 16 0 23 9 84 68 30 30 21 64 63 47 50 34 47 36 41 32 29 43 41 37 9 39 25 21 86 118 124 391 848 844 1014 844 896 691 434 217 1
13 21 33 42 42 10 26 17 17 28 6 26 73 43 42 30 34 22 24 22 19 16 17 4 15 25 13 22 19 37 15 139 200 92 498 706 582 511 488 387 170 52 0 6
17 103 68 78 107 18 7 36 51 59 99 81 33 12 22 34 40 32 27 13 15 13 6 11 14 16 16 8 15 43 14 161 357 443 480 540 400 241 241 63 11 3 4 4
5 0 37 12 2 1 38 6 74 66 43 11 6 14 32 15 19 17 13 18 10 5 6 8 15 13 9 7 12 7 30 102 382 495 411 306 155 111 33 9 39 67 3 5
4 8 9 13 2 25 10 35 72 22 10 4 7 12 17 15 14 16 13 9 6 9 13 14 13 13 10 4 5 19 31 178 284 244 162 131 109 33 31 77 176 180 88 5
7 7 8 19 9 49 77 87 58 26 9 15 11 13 9 14 14 10 8 12 13 13 9 6 7 2 2 0 14 31 114 289 306 25 194 6 5 5 3 3 1 1 1 0
CIN
0 0 0 0 0 0 0 0 0 0 0 0 0 0 0 0 0 0 0 0 0 0 0 0 0 0 0 0 0 0 -472 -99 -106 -248 -425 -544 -607 -513 -510 -482 -477 -783 -529 -647
0 0 0 0 0 0 0 0 0 0 0 0 0 0 0 0 0 0 0 0 0 0 0 0 0 0 0 0 0 0 0 -220 -274 -182 -201 -197 -261 -384 -375 -352 -358 -491 -607 -630
0 0 0 0 0 0 0 0 0 0 0 0 0 0 0 0 0 0 0 0 0 0 0 0 0 0 0 0 0 0 0 0 0 -350 -226 -196 -264 -241 -283 -257 -269 -428 -547 -571
0 0 0 0 0 0 0 0 0 0 0 0 0 0 0 0 0 0 0 0 0 0 0 0 0 0 0 0 0 0 0 0 0 -44 -427 -184 -187 -161 -116 -151 -168 -202 -464 -485
0 0 0 0 0 0 0 0 0 0 0 0 0 0 0 0 0 0 0 0 0 0 0 0 0 0 0 0 0 0 0 0 0 0 -565 -410 -196 -145 -123 -145 -144 -205 -311 -321
0 0 0 0 0 0 0 0 0 0 0 0 0 0 0 0 0 0 0 0 0 0 0 0 0 0 0 0 0 0 0 0 0 0 0 -505 -398 -284 -233 -205 -188 -211 -287 -321
0 0 0 0 0 0 0 0 0 0 0 0 0 0 0 0 0 0 0 0 0 0 0 0 0 0 0 0 0 0 0 0 0 0 0 0 -525 -409 -297 -264 -278 -256 -366 -377
0 0 0 0 0 0 0 0 0 0 0 0 0 0 0 0 0 0 0 0 0 0 0 0 0 0 0 0 0 0 0 0 0 0 0 0 -532 -420 -337 -291 -321 -395 -391 -280
-1 0 0 0 0 0 0 0 0 0 0 0 0 0 0 0 0 0 0 0 0 0 0 0 0 0 0 0 0 0 0 0 0 0 0 0 0 -393 -277 -229 -278 -262 -343 -230
0 0 0 0 0 0 0 0 0 -1 0 0 0 0 0 0 0 0 0 0 0 0 0 0 0 0 0 0 0 0 0 0 0 0 0 0 0 -431 -345 -251 -278 -280 -275 -282
-3 -5 0 0 0 0 0 0 0 -1 -2 0 0 0 0 0 0 0 0 0 0 0 0 0 0 0 0 0 0 0 0 0 0 0 0 0 0 -57 -377 -344 -349 -348 -333 -296
-17 -9 0 0 0 0 0 0 0 0 0 0 0 0 0 0 0 0 0 0 0 0 -199 -230 0 0 -112 -71 0 0 0 0 0 0 0 0 0 -62 -422 -413 -383 -369 -323 -295
-13 -2 0 0 0 0 0 0 0 -1 -1 0 0 0 0 0 0 0 0 0 0 0 -8 -189 0 0 -117 -163 0 0 0 0 0 0 0 0 0 -458 -398 -411 -376 -333 -282 -247
-2 0 0 0 0 0 0 0 -1 0 0 0 0 0 0 0 0 0 0 0 0 0 0 0 0 0 -113 -151 -131 0 0 0 0 -154 -193 0 -383 -320 -359 -389 -365 -323 -263 -211
-1 0 0 0 0 0 0 0 0 0 0 0 0 0 0 0 0 0 0 0 0 0 0 0 0 -159 -212 -164 -210 -213 0 0 -24 0 -115 -133 -165 -228 -332 -352 -334 -284 -227 -188
-11 0 0 0 0 0 0 0 0 0 0 0 0 0 0 0 0 0 0 0 0 0 0 0 0 0 0 0 -198 -157 0 -171 -140 -116 -184 -63 -75 -193 -281 -301 -279 -265 -189 -139
0 0 0 0 0 0 0 0 0 -32 -32 0 0 0 0 0 0 0 0 -8 0 0 0 0 0 0 0 0 0 -82 -97 -177 -184 -98 -176 -54 -38 -147 -246 -292 -293 -246 -182 -100
0 -4 -1 0 0 0 0 0 0 0 0 0 0 0 0 -4 -2 -1 0 0 0 0 0 0 0 0 0 0 0 -75 -119 -132 -159 -88 -103 -6 -32 -136 -223 -249 -257 -203 -93 -48
0 0 0 0 0 0 0 0 -18 -1 0 0 0 0 0 0 0 0 0 0 0 -2 0 0 0 0 0 -51 -65 0 0 -29 -29 -27 -91 0 -56 -152 -207 -212 -194 -141 -72 -82
0 0 0 0 0 0 0 -18 0 -1 0 -8 -4 0 0 0 0 0 0 0 0 0 0 0 0 0 0 -9 -51 0 -73 0 -28 -9 -68 0 -35 -87 -122 -189 -185 -153 -91 -135
0 0 0 0 0 0 0 -1 -9 0 0 0 0 0 0 0 0 0 0 0 -1 0 0 0 0 0 0 -31 -57 -44 -42 -14 -11 -23 -26 -1 -50 -62 -126 -190 -214 -227 -228 0
-1 0 0 0 0 -2 -16 -8 0 0 -1 0 0 0 0 0 0 -1 0 0 -2 -3 -1 -1 0 0 0 -42 -78 -61 -21 -1 -1 -27 -15 -22 -76 -123 -188 -220 -246 -87 0 0
-1 -2 0 0 0 -22 -17 0 0 0 0 0 0 0 0 0 0 0 0 0 0 0 0 0 0 0 0 0 0 -5 -16 -1 0 0 -10 -53 -109 -175 -181 -285 -47 0 0 0
0 0 -1 0 -5 -1 0 -8 0 0 0 0 -1 0 0 0 0 0 0 0 0 0 0 0 0 0 0 0 0 0 -12 -15 -1 -1 -13 -67 -154 -163 -212 -237 -180 -124 0 0
0 0 0 0 0 0 0 0 0 -1 -2 0 -4 -1 0 0 0 0 0 0 0 0 0 0 0 0 0 -12 0 -1 -4 0 -1 -5 -57 -97 -91 -111 -50 -29 -13 -46 -80 -105
0 0 0 0 0 0 0 0 0 -1 -1 -1 -1 0 0 0 0 0 0 0 0 0 0 0 0 0 0 0 0 0 -2 0 0 -48 -45 -14 0 0 0 0 0 0 0 0
Wind_Speed
2 4 4 3 4 2 3 3 3 3 1 11 13 18 18 14 13 11 9 7 6 8 9 10 12 10 10 8 8 6 7 12 11 11 5 7 11 10 10 10 11 11 11 11
3 6 5 2 3 4 5 4 3 5 5 8 15 19 20 18 13 12 9 6 9 7 9 10 11 11 10 10 10 7 5 7 9 9 9 9 10 11 11 9 10 12 12 11
3 2 6 4 4 6 5 5 3 5 5 9 10 11 1 8 3 5 8 9 9 9 7 8 10 12 13 12 11 12 8 6 8 12 9 8 5 7 10 10 10 10 11 12
4 2 6 6 5 7 5 7 3 5 8 7 4 6 8 2 7 4 5 6 8 12 8 7 9 10 11 13 14 13 12 9 5 9 11 14 12 12 12 12 11 9 13 14
2 3 3 4 2 7 0 4 3 6 9 6 6 7 1 6 6 3 9 10 9 5 6 7 8 8 12 11 11 13 13 12 9 6 10 11 14 11 10 9 9 9 10 15
9 1 4 6 3 2 3 1 3 1 3 6 0 5 3 6 6 4 9 6 7 5 6 8 9 9 10 11 10 12 13 14 12 9 8 13 14 14 12 13 11 11 9 9
3 3 2 3 5 3 2 3 5 3 4 4 1 10 10 9 9 13 13 10 4 6 8 11 15 15 14 13 13 11 11 15 14 13 11 9 14 15 16 14 11 10 8 9
7 7 6 3 3 2 4 3 4 5 4 7 5 12 3 1 5 11 10 11 10 10 11 13 16 14 13 14 14 14 14 13 14 13 15 11 12 10 11 13 11 9 10 11
4 4 1 3 3 5 6 5 2 4 5 7 8 11 14 11 8 7 10 7 8 12 15 15 16 14 12 14 16 14 15 16 15 14 13 12 12 13 12 14 12 11 10 11
2 5 3 1 3 3 6 9 4 3 5 6 7 16 13 13 11 12 6 6 8 13 16 16 13 12 12 13 15 15 14 17 17 16 13 13 13 13 14 13 14 12 11 12
3 4 4 2 8 12 6 5 2 2 5 6 9 7 2 11 12 11 10 9 14 17 15 15 15 12 12 12 13 14 15 16 15 16 15 15 14 14 13 13 13 13 12 13
1 2 8 12 7 3 3 9 10 8 6 6 5 16 10 12 5 11 20 21 17 16 16 16 17 16 14 13 14 14 14 15 15 15 15 16 15 13 13 14 14 14 14 12
4 3 5 6 5 4 4 8 9 7 2 15 13 15 6 12 18 23 21 20 17 16 18 18 18 17 16 14 14 15 16 15 16 16 16 16 17 14 15 15 14 15 14 14
2 6 10 11 10 2 8 11 12 11 7 18 18 33 24 26 22 19 18 17 17 17 19 18 17 18 16 15 16 18 17 16 17 17 16 17 17 16 15 14 14 15 15 15
6 10 14 18 19 17 20 21 20 20 23 18 23 25 26 22 20 19 16 16 19 21 21 19 18 17 17 18 17 19 16 17 17 18 18 18 17 16 14 14 14 14 14 14
4 3 3 12 15 17 19 21 19 19 22 23 28 28 26 20 13 17 14 17 21 22 24 24 20 17 20 19 18 20 17 18 17 19 18 19 16 15 15 13 14 13 14 15
1 2 4 6 2 10 16 11 10 9 11 13 18 20 18 19 18 16 19 23 27 26 20 21 17 19 19 19 18 19 18 19 18 20 17 18 16 16 15 15 14 16 16 16
8 4 4 6 8 8 4 5 11 12 15 16 18 21 18 17 18 24 21 24 25 20 19 19 19 19 15 16 19 18 19 17 17 20 15 16 16 15 16 14 16 16 15 16
14 9 4 5 5 13 12 2 3 4 14 18 17 14 16 19 26 23 17 18 16 22 24 22 20 18 15 16 17 17 20 17 18 19 14 14 12 15 18 19 18 15 14 14
7 7 3 3 5 6 3 1 2 6 13 4 10 17 20 22 18 18 22 21 17 22 23 20 20 19 17 17 13 15 18 19 19 14 13 12 13 15 17 18 17 14 14 14
3 3 9 9 7 8 4 1 4 6 6 18 21 18 22 21 20 27 23 22 22 22 19 19 18 17 16 16 15 17 19 19 17 9 12 13 12 13 14 16 16 16 15 13
2 3 4 4 6 7 2 7 5 11 20 20 22 23 23 25 28 23 21 24 22 23 20 21 17 16 15 15 13 16 20 17 15 10 12 14 14 12 13 18 15 15 16 15
2 4 3 4 5 6 11 16 14 20 20 21 21 23 24 26 26 26 26 22 23 21 19 19 17 17 16 15 15 16 18 15 12 10 9 12 14 14 16 17 16 13 13 12
4 2 4 4 4 12 17 17 18 19 19 20 22 24 19 24 22 24 21 20 19 20 20 18 18 18 17 15 15 15 16 11 14 14 12 11 15 16 14 12 12 13 12 11
5 4 6 8 16 17 10 17 18 18 20 21 22 21 20 20 19 20 19 20 19 19 20 19 18 18 18 14 12 13 11 13 15 14 13 13 13 13 13 10 10 12 12 12
1 3 3 5 15 16 17 20 21 20 22 23 20 18 18 18 19 19 17 18 18 18 20 22 24 23 20 21 15 11 15 20 18 17 14 11 11 12 12 12 11 20 12 15
Wind_Direction
47 224 211 159 201 164 174 190 221 278 266 327 299 299 299 285 274 266 256 270 287 287 291 309 317 328 339 349 4 347 231 216 207 202 209 225 215 221 219 224 222 218 206 208
208 226 189 165 174 184 191 204 221 275 260 293 296 296 286 283 265 255 219 244 273 278 276 293 310 321 330 328 333 339 333 287 233 219 210 221 231 216 213 217 222 214 202 191
243 90 161 195 179 194 206 222 214 279 299 272 297 290 59 329 193 213 262 278 291 279 269 291 304 315 323 329 333 324 321 297 263 234 222 216 238 242 214 217 217 217 199 188
261 128 189 197 232 211 242 206 230 281 310 307 347 297 267 153 308 243 300 302 301 299 276 279 305 320 327 322 320 317 317 310 284 251 233 224 214 230 228 213 210 217 199 197
181 186 220 250 218 189 318 164 280 289 288 291 254 256 175 221 222 181 325 317 300 297 306 306 318 315 309 315 314 310 310 305 303 259 240 228 228 221 240 244 235 216 206 206
262 269 256 261 134 153 100 253 286 168 252 244 148 258 196 208 203 267 310 287 286 306 321 325 316 313 308 312 309 311 310 300 304 305 267 235 233 228 225 228 235 242 237 224
214 215 169 197 166 124 130 314 300 237 216 310 131 286 258 229 252 289 295 286 312 331 319 327 326 324 324 323 319 315 311 298 298 300 289 262 237 230 227 223 222 217 215 214
219 227 184 158 217 216 192 250 268 285 262 296 258 252 239 64 286 284 285 283 300 318 334 321 321 311 313 319 314 308 304 289 284 290 289 283 264 242 226 223 220 214 217 224
196 236 234 206 221 203 150 210 25 277 252 267 239 258 272 277 296 286 300 297 298 335 327 327 324 306 306 313 311 307 303 294 281 273 279 271 260 244 233 228 215 214 212 225
124 287 239 200 201 172 246 142 177 190 256 257 254 270 265 300 312 308 324 312 323 327 328 331 329 305 301 306 307 309 304 294 287 280 273 269 263 248 235 225 225 216 209 209
164 244 237 249 220 233 176 198 152 286 248 269 299 273 6 305 318 317 321 322 318 319 322 317 320 303 294 299 305 312 313 302 287 280 274 268 262 249 241 230 224 222 208 197
110 244 260 267 262 310 265 247 234 233 207 237 291 274 289 281 322 316 308 304 309 305 311 313 314 302 294 295 300 309 316 310 291 283 277 266 263 254 237 226 219 213 207 196
181 216 286 276 150 152 203 198 212 219 250 243 262 267 178 271 303 304 304 303 304 305 310 310 302 297 294 299 303 304 310 315 304 292 285 269 258 248 236 224 214 205 199 188
268 238 247 258 296 296 268 248 224 226 252 266 250 273 276 284 288 305 309 300 299 302 300 300 300 297 294 300 299 302 310 312 305 293 289 270 257 238 227 218 207 202 193 182
203 255 251 261 267 270 267 270 263 250 246 252 269 269 281 286 292 299 308 299 300 302 300 296 301 292 295 298 298 294 308 308 307 292 293 270 257 243 218 205 196 191 186 179
184 256 241 274 262 260 268 263 259 253 257 260 265 274 278 284 284 295 297 307 303 293 296 290 287 284 294 296 297 288 306 302 301 291 287 280 252 229 206 187 182 172 175 168
290 249 278 271 299 296 272 266 241 229 244 256 273 290 306 296 304 312 310 304 299 293 295 293 284 292 289 290 294 290 299 297 292 286 284 270 232 212 190 174 165 169 164 158
229 197 255 280 296 242 36 285 281 275 278 279 280 295 302 311 312 307 301 296 302 296 294 292 288 289 285 285 285 293 289 284 291 286 280 250 211 194 180 165 161 159 154 152
222 221 249 271 261 293 285 37 347 296 292 289 294 299 312 311 304 300 299 279 294 285 287 288 288 284 283 277 284 287 285 293 291 282 279 225 187 180 172 158 152 148 137 139
166 208 234 270 280 275 1 111 52 312 286 99 322 314 304 308 300 301 305 301 289 291 287 287 285 289 282 277 277 280 269 273 272 269 268 200 177 176 165 148 138 130 129 128
147 185 230 254 262 265 285 170 302 276 349 311 298 290 294 297 294 303 295 288 301 291 286 283 280 277 273 275 270 265 264 267 274 244 246 179 165 152 148 128 126 121 122 112
241 200 223 239 244 266 92 318 316 298 290 291 298 305 298 297 298 303 294 299 298 292 292 287 280 274 272 263 260 260 267 269 265 236 192 159 143 139 129 124 120 123 115 117
289 233 275 242 268 318 309 287 289 288 294 307 305 307 303 301 296 305 302 298 296 298 294 292 286 278 268 261 250 253 262 258 236 197 152 140 133 130 130 125 124 115 117 122
279 203 240 302 255 279 300 302 299 305 307 307 304 305 306 298 296 297 296 299 299 298 294 290 283 273 264 252 246 244 253 214 207 161 144 136 127 123 124 122 123 128 132 136
269 296 266 254 277 305 300 303 306 313 307 313 310 311 302 300 296 296 301 299 296 294 292 290 279 268 261 248 229 229 222 205 160 138 129 123 119 119 114 93 126 138 143 146
354 262 280 302 298 294 297 309 318 314 312 317 310 307 304 301 299 302 299 297 298 302 296 287 279 238 234 244 218 212 166 144 139 136 129 122 121 119 121 109 86 43 69 81